GW0381 Weather Reports


Display with metric or nautical units.
time (UTC)temp
F
wind
direction
speed
MPH
gust
MPH
rain 1hr
in
rain 24hr
in
rain mn
in
humidity
%
barometer
mb
20260506135156 55 331 3.0 5.0 0.00 0.61 0.61 87 1006.1
20260506134831 55 0 4.0 7.0 0.00 0.61 0.61 87 1006.1
20260506134515 55 314 3.0 5.0 0.00 0.61 0.61 88 1006.1
20260506134216 54 310 3.0 7.0 0.00 0.61 0.61 88 1006.0
20260506133917 54 326 5.0 8.0 0.00 0.61 0.61 88 1006.0
20260506133616 54 329 4.0 8.0 0.00 0.61 0.61 88 1006.0
20260506133355 54 329 3.0 6.0 0.00 0.61 0.61 88 1006.1
20260506133016 54 334 3.0 5.0 0.00 0.61 0.61 88 1006.1
20260506132716 54 339 3.0 6.0 0.00 0.61 0.61 88 1006.1
20260506132416 54 8 5.0 11.0 0.00 0.61 0.61 88 1006.1
20260506132116 54 345 5.0 8.0 0.00 0.61 0.61 88 1006.1
20260506131816 54 337 5.0 7.0 0.00 0.61 0.61 88 1006.0
20260506131559 54 342 4.0 8.0 0.00 0.61 0.61 88 1005.9
20260506131216 54 337 4.0 9.0 0.00 0.61 0.61 88 1005.9
20260506130956 54 314 4.0 8.0 0.00 0.61 0.61 89 1005.8
20260506130656 54 302 6.0 8.0 0.00 0.61 0.61 89 1005.8
20260506130316 54 300 4.0 9.0 0.00 0.61 0.61 89 1005.8
20260506130056 54 292 3.0 7.0 0.00 0.61 0.61 89 1005.8
20260506125716 54 283 4.0 7.0 0.00 0.61 0.61 89 1005.8
20260506125416 54 301 5.0 7.0 0.00 0.61 0.61 89 1005.9
20260506125119 54 289 3.0 6.0 0.00 0.61 0.61 89 1005.9
20260506124816 54 301 2.0 4.0 0.00 0.61 0.61 89 1006.0
20260506124556 54 294 4.0 6.0 0.00 0.61 0.61 89 1005.9
20260506124216 54 314 3.0 5.0 0.00 0.61 0.61 89 1005.8
20260506123916 54 304 3.0 8.0 0.00 0.61 0.61 89 1005.8
20260506123616 54 303 5.0 8.0 0.00 0.61 0.61 89 1005.9
20260506123316 54 321 3.0 7.0 0.00 0.61 0.61 89 1005.8
20260506123016 54 323 5.0 8.0 0.00 0.61 0.61 89 1005.7
20260506122716 54 326 5.0 8.0 0.00 0.61 0.61 89 1005.8
20260506122419 54 347 3.0 6.0 0.00 0.61 0.61 89 1005.7
20260506122116 54 10 3.0 7.0 0.00 0.61 0.61 90 1005.6
20260506121816 54 5 3.0 6.0 0.00 0.61 0.61 90 1005.6
20260506121516 54 337 4.0 7.0 0.00 0.61 0.61 90 1005.6
20260506121216 54 323 5.0 7.0 0.00 0.61 0.61 90 1005.5
20260506120916 54 323 4.0 7.0 0.00 0.62 0.61 90 1005.5
20260506120616 54 327 3.0 7.0 0.00 0.62 0.61 91 1005.5
20260506120316 54 329 3.0 7.0 0.00 0.62 0.61 91 1005.5
20260506120016 54 322 3.0 6.0 0.00 0.62 0.61 91 1005.4
20260506115719 53 326 4.0 7.0 0.00 0.62 0.61 91 1005.5
20260506115456 53 327 4.0 6.0 0.00 0.63 0.61 91 1005.6
20260506115116 53 327 3.0 6.0 0.00 0.63 0.61 91 1005.6
20260506114819 53 326 2.0 4.0 0.00 0.63 0.61 91 1005.6
20260506114516 53 354 1.0 4.0 0.00 0.63 0.61 91 1005.6
20260506114256 53 350 2.0 4.0 0.00 0.63 0.61 91 1005.5
20260506113956 53 357 2.0 6.0 0.00 0.63 0.61 91 1005.4
20260506113618 53 330 4.0 6.0 0.00 0.63 0.61 91 1005.4
20260506113356 53 330 4.0 6.0 0.00 0.63 0.61 91 1005.4
20260506113016 53 4 3.0 6.0 0.00 0.63 0.61 91 1005.3
20260506112716 53 12 5.0 9.0 0.00 0.63 0.61 91 1005.2
20260506112415 53 10 4.0 7.0 0.00 0.63 0.61 91 1005.1
20260506112116 53 355 5.0 9.0 0.00 0.63 0.61 91 1005.1
20260506111819 53 346 4.0 7.0 0.00 0.63 0.61 91 1005.1
20260506111516 53 359 4.0 6.0 0.00 0.63 0.61 91 1005.1
20260506111216 53 345 5.0 8.0 0.00 0.63 0.61 91 1005.0
20260506110916 52 332 6.0 10.0 0.00 0.63 0.61 91 1005.0
20260506110616 52 4 4.0 8.0 0.00 0.63 0.61 91 1004.9
20260506110356 52 14 4.0 8.0 0.00 0.63 0.61 91 1004.9
20260506110016 52 10 4.0 10.0 0.00 0.63 0.61 91 1004.9
20260506105716 52 15 4.0 10.0 0.00 0.64 0.61 91 1004.8
20260506105416 52 15 6.0 10.0 0.00 0.64 0.61 91 1004.7
20260506105159 52 6 5.0 10.0 0.00 0.64 0.61 91 1004.7
20260506104816 53 14 5.0 9.0 0.00 0.64 0.61 91 1004.7
20260506104516 52 20 4.0 7.0 0.00 0.64 0.61 91 1004.6
20260506104256 52 12 4.0 10.0 0.00 0.64 0.61 91 1004.6
20260506103916 52 9 3.0 7.0 0.00 0.64 0.61 91 1004.7
20260506103616 52 10 3.0 6.0 0.00 0.64 0.61 91 1004.6
20260506103316 52 17 4.0 7.0 0.00 0.64 0.61 91 1004.6
20260506103059 52 334 4.0 8.0 0.00 0.64 0.61 91 1004.6
20260506102716 53 354 4.0 6.0 0.00 0.64 0.61 91 1004.6
20260506102416 53 350 4.0 7.0 0.00 0.64 0.61 91 1004.5
20260506102116 53 3 3.0 7.0 0.00 0.65 0.61 91 1004.4
20260506101819 53 6 4.0 9.0 0.00 0.65 0.61 91 1004.4
20260506101516 53 16 4.0 6.0 0.00 0.65 0.61 91 1004.4
20260506101216 53 21 4.0 8.0 0.00 0.65 0.61 91 1004.3
20260506100916 53 3 3.0 8.0 0.00 0.65 0.61 91 1004.3
20260506100616 53 20 2.0 6.0 0.00 0.65 0.61 91 1004.2
20260506100516 53 23 2.0 5.0 0.00 0.65 0.61 91 1004.2
20260506100056 53 13 4.0 10.0 0.00 0.65 0.61 91 1004.1
20260506095716 53 7 3.0 6.0 0.00 0.65 0.61 91 1004.0
20260506095415 53 13 4.0 9.0 0.00 0.65 0.61 91 1004.0
20260506095116 53 9 4.0 10.0 0.00 0.65 0.61 91 1004.0
20260506094816 54 17 4.0 7.0 0.00 0.65 0.61 91 1004.0
20260506094516 53 9 2.0 4.0 0.00 0.65 0.61 91 1004.0
20260506094216 53 29 3.0 6.0 0.00 0.65 0.61 91 1004.0
20260506093915 53 43 3.0 5.0 0.00 0.65 0.61 91 1003.9
20260506093656 53 37 3.0 7.0 0.00 0.65 0.61 91 1003.8
20260506093359 53 18 4.0 7.0 0.00 0.65 0.61 91 1003.7
20260506093216 53 30 4.0 7.0 0.00 0.65 0.61 91 1003.7
20260506092715 53 39 2.0 5.0 0.00 0.65 0.61 91 1003.7
20260506092416 53 36 2.0 5.0 0.01 0.65 0.61 91 1003.7
20260506092156 53 41 3.0 7.0 0.01 0.65 0.61 91 1003.6
20260506091856 53 36 4.0 8.0 0.01 0.65 0.61 91 1003.5
20260506091515 53 46 3.0 6.0 0.01 0.65 0.61 91 1003.5
20260506091215 53 38 4.0 8.0 0.01 0.65 0.61 91 1003.5
20260506090916 53 30 5.0 9.0 0.01 0.65 0.61 91 1003.5
20260506090619 53 34 4.0 7.0 0.01 0.65 0.61 91 1003.4
20260506090356 53 32 3.0 7.0 0.01 0.65 0.61 91 1003.4
20260506090016 53 37 4.0 8.0 0.01 0.65 0.61 91 1003.4
20260506085756 53 42 4.0 7.0 0.02 0.65 0.61 91 1003.4
20260506085456 53 33 2.0 4.0 0.02 0.65 0.61 92 1003.4
20260506085115 53 37 2.0 4.0 0.02 0.65 0.61 92 1003.4
20260506084819 53 41 2.0 4.0 0.02 0.65 0.61 92 1003.4
20260506084516 53 44 4.0 7.0 0.02 0.65 0.61 92 1003.4
20260506084217 53 43 2.0 4.0 0.02 0.65 0.61 91 1003.3
20260506083916 53 41 3.0 5.0 0.02 0.65 0.61 91 1003.3
20260506083619 53 43 4.0 8.0 0.02 0.65 0.61 91 1003.4
20260506083356 53 42 2.0 4.0 0.02 0.65 0.61 91 1003.5
20260506083015 53 46 1.0 3.0 0.02 0.65 0.61 91 1003.5
20260506082759 53 59 3.0 4.0 0.02 0.65 0.61 91 1003.5
20260506082416 53 60 3.0 6.0 0.01 0.64 0.60 92 1003.5
20260506082116 53 40 2.0 4.0 0.01 0.64 0.60 92 1003.5
20260506081816 53 52 2.0 4.0 0.01 0.64 0.60 91 1003.4
20260506081516 53 69 2.0 6.0 0.01 0.64 0.60 91 1003.4
20260506081216 53 64 3.0 6.0 0.01 0.64 0.60 91 1003.4
20260506080915 53 69 4.0 8.0 0.01 0.64 0.60 91 1003.4
20260506080616 53 54 3.0 6.0 0.01 0.65 0.60 91 1003.4
20260506080316 53 59 3.0 9.0 0.02 0.65 0.60 91 1003.4
20260506073316 52 60 3.0 6.0 0.01 0.64 0.59 91 1003.5
20260506073015 52 64 3.0 6.0 0.01 0.64 0.59 91 1003.5
20260506072716 52 53 3.0 7.0 0.01 0.64 0.59 91 1003.5
20260506072419 52 64 3.0 7.0 0.01 0.64 0.59 92 1003.5
20260506072116 52 61 3.0 7.0 0.01 0.64 0.59 91 1003.5
20260506071816 52 65 3.0 8.0 0.01 0.65 0.59 91 1003.5
20260506071516 52 60 4.0 8.0 0.01 0.65 0.59 91 1003.5
20260506071216 52 71 2.0 5.0 0.01 0.65 0.59 91 1003.5
20260506070916 52 62 2.0 5.0 0.01 0.65 0.59 91 1003.5
20260506070618 52 52 2.0 4.0 0.01 0.65 0.59 91 1003.5
20260506070316 52 64 3.0 7.0 0.00 0.64 0.58 91 1003.6
20260506062415 52 50 4.0 8.0 0.01 0.64 0.58 91 1003.6
20260506062116 52 48 3.0 7.0 0.02 0.64 0.58 91 1003.6
20260506061816 52 52 4.0 8.0 0.02 0.64 0.58 91 1003.6
20260506061516 52 46 5.0 11.0 0.02 0.64 0.58 91 1003.7
20260506061216 52 50 4.0 9.0 0.02 0.64 0.58 91 1003.7
20260506060919 52 56 3.0 7.0 0.02 0.64 0.58 91 1003.7
20260506060616 52 48 4.0 8.0 0.02 0.64 0.58 91 1003.7
20260506060315 52 61 3.0 8.0 0.02 0.64 0.58 91 1003.7
20260506051216 52 57 2.0 4.0 0.09 0.62 0.57 91 1003.8
20260506050918 52 57 2.0 3.0 0.09 0.62 0.57 91 1003.8
20260506050616 52 57 2.0 3.0 0.08 0.61 0.56 91 1003.9
20260506050316 52 57 2.0 4.0 0.08 0.61 0.56 91 1003.9
20260506045115 52 58 2.0 3.0 0.06 0.60 0.54 91 1004.1
20260506044816 52 65 2.0 4.0 0.06 0.59 0.54 91 1004.1
20260506044555 52 57 2.0 4.0 0.06 0.59 0.54 91 1004.1
20260506044216 52 81 2.0 6.0 0.05 0.58 0.53 91 1004.2
20260506043915 52 80 3.0 7.0 0.05 0.58 0.53 91 1004.2
20260506043618 52 87 2.0 4.0 0.04 0.57 0.52 91 1004.2
20260506043315 52 96 3.0 4.0 0.04 0.57 0.52 91 1004.1
20260506043015 52 87 3.0 6.0 0.02 0.56 0.50 91 1004.1
20260506042715 52 77 3.0 6.0 0.02 0.55 0.50 91 1004.1
20260506042415 52 77 2.0 4.0 0.01 0.54 0.49 91 1004.0
20260506042115 52 61 2.0 4.0 0.01 0.54 0.49 91 1004.0
20260506041815 52 49 3.0 5.0 0.01 0.54 0.49 91 1003.9
20260506041516 52 18 3.0 7.0 0.01 0.54 0.49 91 1003.9
20260506041215 52 30 4.0 10.0 0.00 0.54 0.48 91 1003.8
20260506040916 52 9 4.0 9.0 0.00 0.54 0.48 91 1003.8
20260506040616 52 19 3.0 7.0 0.00 0.54 0.48 91 1003.8
20260506040439 52 21 4.0 8.0 0.01 0.54 0.48 91 1003.8
20260506040016 52 7 5.0 9.0 0.01 0.54 0.48 91 1003.8
20260506035716 52 21 4.0 9.0 0.01 0.54 0.48 91 1003.8
20260506035416 52 11 4.0 9.0 0.01 0.54 0.48 91 1003.8
20260506035115 52 17 4.0 9.0 0.01 0.54 0.48 91 1003.8
20260506034856 52 22 5.0 13.0 0.01 0.54 0.48 91 1003.6
20260506034516 52 8 6.0 9.0 0.01 0.54 0.48 91 1003.6
20260506034216 52 21 6.0 11.0 0.01 0.54 0.48 91 1003.6
20260506033916 52 21 5.0 11.0 0.02 0.54 0.48 91 1003.6
20260506033615 52 22 5.0 10.0 0.02 0.54 0.48 91 1003.7
20260506033356 52 22 4.0 12.0 0.02 0.54 0.48 91 1003.7
20260506033019 52 32 6.0 11.0 0.02 0.54 0.48 91 1003.7
20260506032716 52 8 5.0 11.0 0.03 0.54 0.48 91 1003.6
20260506032456 52 30 5.0 10.0 0.03 0.54 0.48 91 1003.7
20260506032116 52 31 5.0 9.0 0.03 0.54 0.48 91 1003.7
20260506031901 52 32 5.0 10.0 0.04 0.54 0.48 91 1003.8
20260506031515 52 34 5.0 9.0 0.05 0.54 0.48 91 1003.9
20260506031215 52 25 2.0 7.0 0.06 0.54 0.48 91 1004.0
20260506030915 52 12 4.0 9.0 0.07 0.54 0.48 91 1004.0
20260506030700 52 10 4.0 10.0 0.08 0.54 0.48 91 1004.1
20260506030356 52 16 3.0 7.0 0.09 0.53 0.47 91 1004.1
20260506030016 52 14 4.0 8.0 0.09 0.53 0.47 91 1004.1
20260506025719 52 18 5.0 10.0 0.11 0.53 0.47 91 1004.2
20260506025415 52 32 5.0 12.0 0.12 0.53 0.47 91 1004.2
20260506025116 52 35 5.0 10.0 0.13 0.53 0.47 91 1004.3
20260506024816 52 44 5.0 9.0 0.14 0.53 0.47 91 1004.3
20260506024516 52 32 4.0 12.0 0.16 0.53 0.47 91 1004.2
20260506024256 52 36 5.0 15.0 0.17 0.53 0.47 91 1004.2
20260506023916 52 36 6.0 13.0 0.17 0.52 0.46 91 1004.1
20260506023616 52 40 7.0 15.0 0.18 0.52 0.46 91 1004.2
20260506023438 52 47 7.0 14.0 0.19 0.52 0.46 91 1004.2
20260506023056 52 38 7.0 11.0 0.19 0.51 0.46 91 1004.2
20260506022716 52 35 7.0 13.0 0.18 0.50 0.45 91 1004.2
20260506022416 52 33 9.0 15.0 0.19 0.50 0.45 91 1004.1
20260506022116 52 38 9.0 14.0 0.20 0.50 0.45 91 1004.2
20260506021856 52 37 7.0 15.0 0.20 0.50 0.44 91 1004.3
20260506021559 52 36 8.0 16.0 0.21 0.49 0.43 91 1004.4
20260506021215 52 37 7.0 12.0 0.20 0.47 0.42 91 1004.4
20260506020916 52 35 6.0 12.0 0.21 0.46 0.41 91 1004.6
20260506020656 52 37 6.0 11.0 0.23 0.46 0.40 91 1004.8
20260506020316 52 30 6.0 13.0 0.23 0.44 0.39 91 1004.9
20260506020056 52 31 5.0 10.0 0.23 0.43 0.38 91 1005.0
20260506015716 53 36 5.0 8.0 0.22 0.42 0.36 91 1005.1
20260506015416 53 42 4.0 9.0 0.21 0.41 0.35 91 1005.2
20260506015118 53 52 4.0 7.0 0.21 0.40 0.35 91 1005.4
20260506014816 53 44 4.0 7.0 0.20 0.39 0.33 91 1005.4
20260506014515 53 47 3.0 5.0 0.18 0.37 0.31 91 1005.5
20260506014216 53 54 3.0 6.0 0.17 0.36 0.31 91 1005.4
20260506013915 53 46 3.0 5.0 0.16 0.35 0.29 90 1005.4
20260506013622 53 37 4.0 8.0 0.15 0.34 0.28 90 1005.4
20260506013316 53 39 3.0 7.0 0.14 0.33 0.28 90 1005.6
20260506013015 53 34 3.0 5.0 0.13 0.32 0.27 90 1005.7
20260506012716 53 45 2.0 4.0 0.13 0.32 0.27 90 1005.9
20260506012415 53 62 2.0 3.0 0.13 0.31 0.26 90 1006.0
20260506012159 53 131 1.0 2.0 0.12 0.31 0.25 90 1006.1
20260506011855 53 145 1.0 2.0 0.11 0.29 0.24 90 1006.3
20260506011516 53 145 0.0 2.0 0.09 0.28 0.22 90 1006.3
20260506011216 53 145 1.0 3.0 0.09 0.27 0.21 90 1006.4
20260506010918 53 144 2.0 3.0 0.08 0.25 0.20 90 1006.5
20260506010656 53 128 2.0 4.0 0.06 0.23 0.17 90 1006.5
20260506010315 53 115 2.0 3.0 0.05 0.21 0.16 90 1006.5
20260506010016 53 105 1.0 3.0 0.04 0.20 0.15 90 1006.4
20260506005715 53 92 1.0 3.0 0.04 0.20 0.14 90 1006.4
20260506005416 53 65 1.0 2.0 0.06 0.20 0.14 90 1006.3
20260506005115 53 55 0.0 1.0 0.06 0.19 0.13 90 1006.2
20260506004815 53 59 3.0 7.0 0.07 0.19 0.13 90 1006.0
20260506004516 53 31 4.0 9.0 0.09 0.19 0.13 90 1005.8
20260506004255 53 39 6.0 10.0 0.10 0.19 0.13 90 1005.6
20260506003915 53 33 5.0 10.0 0.11 0.19 0.13 90 1005.5
20260506003617 53 36 6.0 13.0 0.13 0.19 0.13 90 1005.4
20260506003316 53 38 6.0 12.0 0.13 0.19 0.13 89 1005.3
20260506003016 53 35 8.0 14.0 0.13 0.19 0.13 89 1005.2
20260506002716 53 37 8.0 13.0 0.13 0.19 0.13 89 1005.3
20260506002416 53 38 7.0 12.0 0.13 0.19 0.13 89 1005.3
20260506002115 53 40 7.0 13.0 0.13 0.19 0.13 89 1005.4
20260506001816 54 35 6.0 12.0 0.13 0.18 0.13 89 1005.5
20260506001517 54 28 5.0 11.0 0.13 0.18 0.13 89 1005.5
20260506001216 54 31 6.0 10.0 0.12 0.17 0.12 89 1005.6
20260506000916 54 29 4.0 7.0 0.12 0.17 0.12 89 1005.6
20260506000616 54 33 5.0 9.0 0.12 0.17 0.12 89 1005.7
20260506000316 54 20 5.0 10.0 0.11 0.17 0.11 89 1005.7
20260506000015 54 27 5.0 9.0 0.11 0.17 0.11 89 1005.7
20260505235718 54 39 6.0 10.0 0.10 0.16 0.10 89 1005.9
20260505235415 54 36 6.0 11.0 0.09 0.14 0.09 89 1005.9
20260505235116 54 35 5.0 10.0 0.07 0.13 0.07 89 1005.9
20260505234816 54 24 4.0 10.0 0.06 0.12 0.06 88 1005.9
20260505234518 54 37 6.0 10.0 0.05 0.10 0.05 88 1006.1
20260505234256 54 30 6.0 12.0 0.03 0.09 0.03 88 1006.1
20260505233957 54 44 4.0 8.0 0.02 0.08 0.02 88 1006.2
20260505233616 54 39 7.0 11.0 0.01 0.06 0.01 88 1006.4
20260505233316 55 45 5.0 9.0 0.01 0.06 0.01 88 1006.6
20260505233021 55 56 5.0 14.0 0.00 0.06 0.00 88 1006.7
20260505232716 55 65 4.0 8.0 0.00 0.06 0.00 88 1006.7
20260505232416 55 74 4.0 9.0 0.00 0.06 0.00 89 1006.7
20260505232116 55 59 3.0 5.0 0.00 0.06 0.00 89 1006.8
20260505231857 55 59 2.0 5.0 0.00 0.06 0.00 89 1006.7
20260505231516 55 69 2.0 4.0 0.00 0.06 0.00 89 1006.8
20260505231216 55 54 3.0 8.0 0.00 0.06 0.00 89 1006.8
20260505230916 55 64 2.0 4.0 0.00 0.06 0.00 88 1006.9
20260505230658 55 48 2.0 4.0 0.00 0.06 0.00 88 1006.9
20260505230318 55 62 3.0 5.0 0.00 0.06 0.00 88 1006.9
20260505230058 55 56 2.0 5.0 0.00 0.06 0.00 88 1006.9
20260505225716 55 70 3.0 7.0 0.00 0.06 0.00 88 1007.0
20260505225416 55 85 3.0 7.0 0.00 0.06 0.00 88 1006.9
20260505225156 55 64 2.0 4.0 0.00 0.06 0.00 89 1006.9
20260505224816 55 46 3.0 9.0 0.00 0.06 0.00 88 1006.7
20260505224559 55 45 4.0 8.0 0.00 0.06 0.00 88 1006.6
20260505224258 55 45 4.0 9.0 0.00 0.06 0.00 88 1006.7
20260505223916 55 46 4.0 9.0 0.00 0.06 0.00 88 1006.7
20260505223615 55 43 4.0 9.0 0.00 0.06 0.00 89 1006.7
20260505223316 55 40 2.0 4.0 0.00 0.06 0.00 89 1006.7
20260505223015 55 43 2.0 4.0 0.00 0.06 0.00 88 1006.6
20260505222717 55 35 2.0 6.0 0.00 0.06 0.00 88 1006.6
20260505222416 55 39 2.0 5.0 0.00 0.06 0.00 88 1006.6
20260505222238 55 45 1.0 3.0 0.00 0.06 0.00 88 1006.7
20260505221816 56 54 2.0 4.0 0.00 0.06 0.00 88 1006.7
20260505221515 56 48 3.0 7.0 0.00 0.06 0.00 88 1006.7
20260505221257 56 48 3.0 6.0 0.00 0.06 0.00 88 1006.7
20260505220916 56 40 4.0 8.0 0.00 0.06 0.00 88 1006.7
20260505220616 56 44 3.0 6.0 0.00 0.06 0.00 88 1006.7
20260505220318 56 57 3.0 5.0 0.00 0.06 0.00 88 1006.7
20260505220057 56 64 2.0 7.0 0.00 0.06 0.00 88 1006.8
20260505215718 56 63 3.0 7.0 0.00 0.06 0.06 88 1006.8
20260505215415 56 60 6.0 13.0 0.00 0.06 0.06 88 1006.8
20260505215118 56 67 3.0 7.0 0.00 0.06 0.06 88 1006.8
20260505214815 56 77 1.0 3.0 0.00 0.06 0.06 88 1006.8
20260505214517 56 50 2.0 5.0 0.00 0.06 0.06 88 1006.8
20260505214216 56 39 3.0 6.0 0.00 0.06 0.06 88 1006.8
20260505213916 56 44 2.0 5.0 0.00 0.06 0.06 88 1006.8
20260505213616 56 51 2.0 5.0 0.00 0.06 0.06 88 1006.8
20260505213355 56 47 3.0 8.0 0.00 0.06 0.06 88 1006.8
20260505213016 56 51 3.0 8.0 0.00 0.06 0.06 88 1006.8
20260505212717 56 38 3.0 7.0 0.00 0.06 0.06 88 1006.8
20260505212459 56 37 3.0 9.0 0.00 0.06 0.06 88 1006.8
20260505212137 56 40 2.0 4.0 0.00 0.06 0.06 88 1006.8
20260505211516 56 40 2.0 5.0 0.00 0.06 0.06 88 1006.7
20260505211215 56 39 2.0 4.0 0.00 0.06 0.06 88 1006.8
20260505210917 56 40 3.0 7.0 0.00 0.06 0.06 88 1006.7
20260505210615 56 12 3.0 7.0 0.00 0.06 0.06 88 1006.7
20260505210318 56 24 2.0 4.0 0.00 0.06 0.06 88 1006.7
20260505210021 56 29 3.0 6.0 0.00 0.06 0.06 88 1006.7
20260505205716 56 36 2.0 5.0 0.00 0.06 0.06 88 1006.7
20260505205416 56 37 2.0 4.0 0.00 0.06 0.06 88 1006.8
20260505205155 56 26 2.0 5.0 0.00 0.06 0.06 88 1006.8
20260505204818 56 24 3.0 6.0 0.00 0.06 0.06 87 1006.9
20260505204518 56 16 2.0 5.0 0.00 0.06 0.06 87 1007.0
20260505204216 56 11 2.0 5.0 0.00 0.06 0.06 87 1007.0
20260505203916 56 27 2.0 5.0 0.00 0.06 0.06 87 1007.0
20260505203619 56 34 2.0 6.0 0.00 0.06 0.06 87 1007.0
20260505203402 56 44 4.0 7.0 0.00 0.06 0.06 87 1007.0
20260505203015 56 36 2.0 5.0 0.00 0.06 0.06 87 1007.0
20260505202717 56 37 3.0 6.0 0.00 0.06 0.06 87 1007.0
20260505202415 56 45 3.0 4.0 0.00 0.06 0.06 87 1007.0
20260505202118 56 42 2.0 7.0 0.00 0.06 0.06 87 1007.0
20260505201816 56 35 4.0 7.0 0.00 0.06 0.06 87 1007.0
20260505201516 56 46 4.0 8.0 0.00 0.06 0.06 87 1007.0
20260505201216 56 41 3.0 8.0 0.00 0.06 0.06 87 1007.0
20260505200917 56 47 3.0 7.0 0.00 0.06 0.06 87 1006.9
20260505200616 56 33 3.0 6.0 0.00 0.06 0.06 87 1006.9
20260505200315 56 39 3.0 6.0 0.00 0.06 0.06 87 1006.8
20260505200056 56 36 4.0 8.0 0.00 0.06 0.06 87 1006.8
20260505195839 56 27 2.0 5.0 0.00 0.06 0.06 87 1006.9
20260505195416 56 29 2.0 5.0 0.00 0.06 0.06 87 1006.9
20260505195116 56 48 2.0 5.0 0.00 0.06 0.06 87 1006.9
20260505194817 56 44 2.0 5.0 0.00 0.06 0.06 87 1006.9
20260505194516 56 37 2.0 5.0 0.00 0.06 0.06 87 1006.9
20260505194215 56 38 3.0 7.0 0.00 0.06 0.06 87 1006.9
20260505193916 56 23 2.0 7.0 0.00 0.06 0.06 87 1007.0
20260505193619 56 44 2.0 5.0 0.00 0.06 0.06 86 1007.0
20260505193316 56 45 2.0 4.0 0.00 0.06 0.06 86 1007.0
20260505193056 56 51 2.0 5.0 0.00 0.06 0.06 86 1007.0
20260505192719 56 43 1.0 3.0 0.00 0.06 0.06 86 1007.0
20260505192416 56 40 2.0 4.0 0.00 0.06 0.06 85 1007.0
20260505192115 56 41 2.0 3.0 0.00 0.06 0.06 85 1006.9
20260505191857 57 40 2.0 7.0 0.00 0.06 0.06 85 1006.9
20260505191516 57 36 3.0 5.0 0.00 0.06 0.06 84 1006.9
20260505191216 57 44 2.0 4.0 0.00 0.06 0.06 84 1006.8
20260505190916 57 35 2.0 7.0 0.00 0.06 0.06 84 1006.8
20260505190617 57 32 4.0 7.0 0.00 0.06 0.06 84 1006.9
20260505190316 57 37 4.0 8.0 0.00 0.06 0.06 83 1006.9
20260505190015 58 27 3.0 7.0 0.00 0.06 0.06 83 1006.9
20260505185716 58 36 4.0 8.0 0.00 0.06 0.06 83 1007.0
20260505185420 58 34 4.0 9.0 0.00 0.06 0.06 83 1006.9
20260505185116 58 35 3.0 6.0 0.00 0.06 0.06 84 1007.0
20260505184816 58 37 5.0 11.0 0.00 0.06 0.06 84 1007.0
20260505184516 58 37 4.0 9.0 0.00 0.06 0.06 84 1007.0
20260505184216 58 36 3.0 10.0 0.00 0.06 0.06 84 1007.0
20260505183915 58 39 4.0 7.0 0.00 0.06 0.06 84 1007.0
20260505183615 58 50 3.0 11.0 0.00 0.06 0.06 84 1007.0
20260505183319 58 36 3.0 8.0 0.00 0.06 0.06 84 1007.0
20260505183016 58 35 4.0 9.0 0.00 0.06 0.06 85 1007.0
20260505182719 59 38 3.0 6.0 0.00 0.06 0.06 85 1006.9
20260505182416 59 41 5.0 14.0 0.00 0.06 0.06 85 1006.9
20260505182116 59 39 4.0 9.0 0.00 0.06 0.06 85 1007.0
20260505181815 59 33 5.0 9.0 0.00 0.06 0.06 85 1007.0
20260505181556 59 31 3.0 10.0 0.00 0.06 0.06 86 1007.0
20260505181215 59 32 3.0 8.0 0.00 0.06 0.06 86 1007.0
20260505180959 59 37 4.0 9.0 0.00 0.06 0.06 86 1007.1
20260505180616 59 31 2.0 5.0 0.00 0.06 0.06 86 1007.1
20260505180317 59 36 3.0 8.0 0.00 0.06 0.06 85 1007.1
20260505180016 59 36 1.0 4.0 0.00 0.06 0.06 85 1007.1
20260505175715 59 27 1.0 4.0 0.00 0.06 0.06 85 1007.1
20260505175537 59 33 2.0 5.0 0.00 0.06 0.06 85 1007.1
20260505175116 59 32 2.0 6.0 0.00 0.06 0.06 85 1007.1
20260505174816 59 37 2.0 5.0 0.00 0.06 0.06 85 1007.0
20260505174516 59 45 2.0 5.0 0.00 0.06 0.06 84 1007.1
20260505174219 60 37 1.0 3.0 0.00 0.06 0.06 84 1007.1
20260505173916 60 39 2.0 6.0 0.00 0.06 0.06 84 1007.1
20260505173655 60 34 2.0 5.0 0.00 0.06 0.06 84 1007.1
20260505173316 60 16 1.0 6.0 0.00 0.06 0.06 84 1007.2
20260505173016 60 25 1.0 3.0 0.00 0.06 0.06 84 1007.2
20260505172716 60 30 1.0 5.0 0.00 0.06 0.06 83 1007.2
20260505172415 60 33 2.0 6.0 0.00 0.06 0.06 83 1007.2
20260505172116 60 33 3.0 8.0 0.00 0.06 0.06 83 1007.2
20260505171819 60 39 2.0 7.0 0.00 0.06 0.06 83 1007.2
20260505171515 60 39 3.0 9.0 0.00 0.06 0.06 83 1007.1
20260505171217 61 26 3.0 7.0 0.00 0.06 0.06 83 1007.1
20260505170917 61 35 2.0 9.0 0.00 0.06 0.06 82 1007.1
20260505170656 61 38 2.0 6.0 0.00 0.06 0.06 82 1007.1
20260505170356 61 38 1.0 4.0 0.00 0.06 0.06 82 1007.2
20260505170016 61 43 3.0 7.0 0.00 0.06 0.06 82 1007.2
20260505165716 61 47 2.0 6.0 0.00 0.06 0.06 81 1007.1
20260505165416 61 30 1.0 5.0 0.00 0.06 0.06 81 1007.2
20260505165116 61 20 2.0 6.0 0.00 0.06 0.06 81 1007.2
20260505164816 61 5 1.0 4.0 0.00 0.06 0.06 81 1007.1
20260505164516 61 31 1.0 4.0 0.00 0.06 0.06 81 1007.2
20260505164216 62 40 3.0 8.0 0.00 0.06 0.06 81 1007.2
20260505163916 62 36 1.0 3.0 0.00 0.06 0.06 81 1007.2
20260505163616 62 30 1.0 4.0 0.00 0.06 0.06 81 1007.2
20260505163355 62 3 0.0 2.0 0.00 0.06 0.06 80 1007.2
20260505163017 62 27 3.0 6.0 0.00 0.06 0.06 80 1007.3
20260505162716 62 25 2.0 5.0 0.00 0.06 0.06 80 1007.3
20260505162416 62 15 2.0 5.0 0.00 0.06 0.06 80 1007.3
20260505162116 62 26 3.0 7.0 0.00 0.06 0.06 80 1007.3
20260505161817 62 31 3.0 7.0 0.00 0.06 0.06 80 1007.4
20260505161555 62 22 3.0 8.0 0.00 0.06 0.06 80 1007.5
20260505161215 62 23 3.0 6.0 0.00 0.06 0.06 80 1007.5
20260505160916 62 22 1.0 5.0 0.00 0.06 0.06 80 1007.4
20260505160616 62 7 1.0 5.0 0.00 0.06 0.06 80 1007.4
20260505160356 63 9 2.0 5.0 0.00 0.06 0.06 80 1007.4
20260505153316 63 26 3.0 7.0 0.00 0.06 0.06 79 1007.7
20260505153015 63 19 5.0 9.0 0.00 0.06 0.06 80 1007.7
20260505152716 63 19 4.0 9.0 0.00 0.06 0.06 80 1007.6
20260505152417 63 8 4.0 9.0 0.00 0.06 0.06 80 1007.6
20260505152157 63 5 4.0 9.0 0.00 0.06 0.06 79 1007.6
20260505151816 64 13 4.0 10.0 0.00 0.06 0.06 80 1007.6
20260505151517 64 14 3.0 6.0 0.00 0.06 0.06 80 1007.6
20260505151216 64 7 3.0 7.0 0.00 0.06 0.06 79 1007.7
20260505150915 64 29 2.0 6.0 0.00 0.06 0.06 79 1007.7
20260505150616 65 17 4.0 7.0 0.00 0.06 0.06 80 1007.6
20260505150323 64 19 4.0 7.0 0.00 0.06 0.06 79 1007.6
20260505140615 63 326 0.0 2.0 0.00 0.06 0.06 82 1007.9
20260505140316 63 344 2.0 5.0 0.00 0.06 0.06 82 1007.9